Weather History for Gunnison, CO

Change the Weather History Date:

Friday, May 18, 2012

  Actual Average Record
Temperature  
Mean Temperature 53 °F -  
Max Temperature 71 °F 63 °F 75 °F (2002)
Min Temperature 35 °F 31 °F 24 °F (1999)
Degree Days  
Heating Degree Days 12    
Growing Degree Days 3 (Base 50)    
Moisture  
Dew Point 22 °F    
Average Humidity 34    
Maximum Humidity 70    
Minimum Humidity 12    
Precipitation  
Precipitation 0.00 in - - ()
Sea Level Pressure  
Sea Level Pressure 29.94 in    
Wind  
Wind Speed 6 mph (SW)    
Max Wind Speed 28 mph    
Max Gust Speed 40 mph    
Visibility 10 miles    
Events      
Averages and records for this station are not official NWS values.
T = Trace of Precipitation, MM = Missing Value Source: NWS Daily Summary

Daily Weather History Graph

Daily Weather History Graph

Search for Another Location

Airport:

Trip Planner

Search our weather history database for the weather conditions in past years. The results will help you decide how hot, cold, wet, or windy it might be!

Date:

Astronomy

May. 18, 2012 Rise Set
Actual Time 5:53 AM MDT 8:15 PM MDT
Civil Twilight 5:23 AM MDT 8:45 PM MDT
Nautical Twilight 4:45 AM MDT 9:23 PM MDT
Astronomical Twilight 4:05 AM MDT 10:04 PM MDT
Moon 4:22 AM MDT (5/18) 6:28 PM MDT (5/18)
Length of Visible Light 15h 22m
Length of Day
14h 22m
Waning Crescent, 4% of the Moon is Illuminated
May 18
Waning Crescent
May 20
New
May 28
First Quarter
Jun 4
Full
Jun 11
Last Quarter

Hourly Weather History & Observations

Time (MDT) Temp. Windchill Dew Point Humidity Pressure Visibility Wind Dir Wind Speed Gust Speed Precip Events Conditions
12:15 AM 46.4 °F - 26.6 °F 46% 30.01 in 10.0 mi Calm Calm - N/A   Partly Cloudy
12:35 AM 46.4 °F 43.5 °F 28.4 °F 50% 30.01 in 10.0 mi North 5.8 mph - N/A   Clear
12:55 AM 46.4 °F - 28.4 °F 50% 30.00 in 10.0 mi Calm Calm - N/A   Partly Cloudy
1:15 AM 46.4 °F 42.9 °F 28.4 °F 50% 30.00 in 10.0 mi North 6.9 mph - N/A   Clear
1:35 AM 44.6 °F 43.1 °F 28.4 °F 53% 29.99 in 10.0 mi SE 3.5 mph - N/A   Clear
1:55 AM 44.6 °F - 28.4 °F 53% 29.99 in 10.0 mi Calm Calm - N/A   Clear
2:35 AM 42.8 °F - 24.8 °F 49% 29.99 in 10.0 mi Calm Calm - N/A   Clear
2:55 AM 42.8 °F - 26.6 °F 53% 30.00 in 10.0 mi Calm Calm - N/A   Clear
3:15 AM 42.8 °F - 24.8 °F 49% 30.00 in 10.0 mi Calm Calm - N/A   Clear
3:35 AM 41.0 °F 36.4 °F 21.2 °F 45% 30.00 in 10.0 mi SSE 6.9 mph - N/A   Clear
3:55 AM 41.0 °F - 24.8 °F 53% 30.00 in 10.0 mi Calm Calm - N/A   Clear
4:15 AM 39.2 °F - 24.8 °F 56% 30.00 in 10.0 mi Calm Calm - N/A   Clear
4:35 AM 37.4 °F - 24.8 °F 60% 29.99 in 10.0 mi Calm Calm - N/A   Clear
4:55 AM 37.4 °F - 24.8 °F 60% 29.99 in 10.0 mi Calm Calm - N/A   Clear
5:15 AM 35.6 °F - 26.6 °F 70% 29.99 in 10.0 mi Calm Calm - N/A   Clear
5:55 AM 35.6 °F - 24.8 °F 65% 29.99 in 10.0 mi Calm Calm - N/A   Clear
6:15 AM 35.6 °F - 24.8 °F 65% 30.00 in 10.0 mi Calm Calm - N/A   Clear
6:35 AM 35.6 °F - 24.8 °F 65% 29.99 in 10.0 mi Calm Calm - N/A   Clear
6:55 AM 37.4 °F - 24.8 °F 60% 30.00 in 10.0 mi Calm Calm - N/A   Clear
7:15 AM 39.2 °F - 24.8 °F 56% 30.00 in 10.0 mi Calm Calm - N/A   Clear
7:35 AM 42.8 °F - 26.6 °F 53% 30.00 in 10.0 mi Calm Calm - N/A   Clear
7:55 AM 44.6 °F 43.1 °F 26.6 °F 49% 30.00 in 10.0 mi NE 3.5 mph - N/A   Clear
8:15 AM 44.6 °F - 23.0 °F 43% 30.00 in 10.0 mi Calm Calm - N/A   Clear
8:35 AM 46.4 °F - 23.0 °F 40% 29.99 in 10.0 mi Calm Calm - N/A   Clear
8:55 AM 48.2 °F - 21.2 °F 34% 29.98 in 10.0 mi Calm Calm - N/A   Clear
9:15 AM 51.8 °F - 24.8 °F 35% 29.98 in 10.0 mi Calm Calm - N/A   Clear
9:35 AM 53.6 °F - 24.8 °F 33% 29.97 in 10.0 mi Calm Calm - N/A   Clear
9:55 AM 53.6 °F - 26.6 °F 35% 29.96 in 10.0 mi Calm Calm - N/A   Clear
10:15 AM 55.4 °F - 28.4 °F 36% 29.96 in 10.0 mi SE 3.5 mph - N/A   Clear
10:35 AM 60.8 °F - 26.6 °F 27% 29.95 in 10.0 mi NNE 3.5 mph - N/A   Partly Cloudy
10:55 AM 62.6 °F - 24.8 °F 24% 29.94 in 10.0 mi NE 3.5 mph - N/A   Clear
11:35 AM 68.0 °F - 23.0 °F 18% 29.90 in 10.0 mi SSE 13.8 mph 23.0 mph N/A   Partly Cloudy
11:55 AM 69.8 °F - 21.2 °F 16% 29.89 in 10.0 mi SSW 10.4 mph 17.3 mph N/A   Scattered Clouds
12:15 PM 69.8 °F - 21.2 °F 16% 29.89 in 10.0 mi WSW 16.1 mph 23.0 mph N/A   Scattered Clouds
12:35 PM 69.8 °F - 19.4 °F 15% 29.88 in 10.0 mi West 11.5 mph 21.9 mph N/A   Mostly Cloudy
12:55 PM 71.6 °F - 21.2 °F 15% 29.87 in 10.0 mi SW 11.5 mph 19.6 mph N/A   Scattered Clouds
1:15 PM 69.8 °F - 17.6 °F 14% 29.86 in 10.0 mi SSW 20.7 mph 33.4 mph N/A   Partly Cloudy
1:35 PM 71.6 °F - 15.8 °F 12% 29.85 in 10.0 mi SW 21.9 mph 32.2 mph N/A   Clear
1:55 PM 71.6 °F - 15.8 °F 12% 29.85 in 10.0 mi SSW 18.4 mph 28.8 mph N/A   Clear
2:15 PM 71.6 °F - 15.8 °F 12% 29.85 in 10.0 mi SW 17.3 mph 29.9 mph N/A   Clear
2:35 PM 71.6 °F - 15.8 °F 12% 29.86 in 10.0 mi SW 19.6 mph 28.8 mph N/A   Clear
2:55 PM 71.6 °F - 15.8 °F 12% 29.86 in 10.0 mi WSW 21.9 mph 29.9 mph N/A   Clear
3:15 PM 69.8 °F - 15.8 °F 13% 29.86 in 10.0 mi SSW 20.7 mph 32.2 mph N/A   Clear
3:35 PM 69.8 °F - 14.0 °F 12% 29.86 in 10.0 mi SSW 19.6 mph 33.4 mph N/A   Clear
3:55 PM 69.8 °F - 14.0 °F 12% 29.85 in 10.0 mi SSW 25.3 mph 34.5 mph N/A   Clear
4:15 PM 69.8 °F - 14.0 °F 12% 29.84 in 10.0 mi SW 23.0 mph 33.4 mph N/A   Clear
4:35 PM 66.2 °F - 15.8 °F 14% 29.85 in 10.0 mi SSW 17.3 mph 26.5 mph N/A   Partly Cloudy
4:55 PM 66.2 °F - 15.8 °F 14% 29.85 in 10.0 mi WSW 21.9 mph 28.8 mph N/A   Scattered Clouds
5:15 PM 66.2 °F - 15.8 °F 14% 29.86 in 10.0 mi SW 19.6 mph 28.8 mph N/A   Partly Cloudy
5:35 PM 66.2 °F - 15.8 °F 14% 29.87 in 10.0 mi SSW 17.3 mph 23.0 mph N/A   Scattered Clouds
5:55 PM 64.4 °F - 19.4 °F 18% 29.88 in 10.0 mi SW 19.6 mph 29.9 mph N/A   Partly Cloudy
6:15 PM 64.4 °F - 17.6 °F 16% 29.88 in 10.0 mi SW 15.0 mph 24.2 mph N/A   Clear
6:35 PM 64.4 °F - 19.4 °F 18% 29.88 in 10.0 mi South 18.4 mph 26.5 mph N/A   Clear
6:55 PM 62.6 °F - 19.4 °F 19% 29.88 in 10.0 mi South 11.5 mph - N/A   Scattered Clouds
7:15 PM 60.8 °F - 19.4 °F 20% 29.87 in 10.0 mi SSE 13.8 mph 18.4 mph N/A   Partly Cloudy
7:35 PM 62.6 °F - 19.4 °F 19% 29.87 in 10.0 mi South 18.4 mph 24.2 mph N/A   Clear
7:55 PM 60.8 °F - 19.4 °F 20% 29.87 in 10.0 mi South 13.8 mph - N/A   Mostly Cloudy
8:15 PM 60.8 °F - 19.4 °F 20% 29.88 in 10.0 mi SW 3.5 mph 27.6 mph N/A   Mostly Cloudy
8:35 PM 60.8 °F - 17.6 °F 19% 29.88 in 10.0 mi SW 6.9 mph - N/A   Mostly Cloudy
8:55 PM 60.8 °F - 17.6 °F 19% 29.91 in 10.0 mi SW 27.6 mph 40.3 mph N/A   Overcast
9:15 PM 57.2 °F - 19.4 °F 23% 29.93 in 10.0 mi WSW 20.7 mph 36.8 mph N/A   Overcast
10:15 PM 51.8 °F - 28.4 °F 41% 30.00 in 10.0 mi WNW 8.1 mph - N/A   Partly Cloudy
10:35 PM 50.0 °F - 30.2 °F 47% 30.02 in 10.0 mi SSW 6.9 mph - N/A   Scattered Clouds
10:55 PM 50.0 °F - 30.2 °F 47% 30.01 in 10.0 mi SW 12.7 mph - N/A   Mostly Cloudy
11:15 PM 48.2 °F - 30.2 °F 50% 30.03 in 10.0 mi WNW 8.1 mph - N/A   Scattered Clouds
11:35 PM 48.2 °F - 32.0 °F 54% 30.04 in 10.0 mi Calm Calm - N/A   Partly Cloudy
11:55 PM 46.4 °F 42.9 °F 32.0 °F 57% 30.04 in 10.0 mi WSW 6.9 mph - N/A   Scattered Clouds